Theta_e
346 349 349 349 349 349 342 340 345 347 347 346 346 341 335 331 328 328 329 331 329 326 320 316 316 317 317 314 312 321 326 323 322 335 338 336 343 341 346 346 343 339 341
343 346 345 347 347 346 343 342 345 346 345 346 344 335 332 329 328 328 329 332 330 333 334 327 320 320 320 320 320 319 320 322 327 335 337 341 342 346 343 345 343 342 342
345 342 339 341 344 345 345 345 346 345 345 346 342 334 330 328 328 328 328 328 330 333 329 323 322 321 321 321 322 321 323 324 333 339 346 344 346 348 347 346 344 343 341
349 346 345 341 341 344 345 346 345 344 345 342 337 333 330 330 330 328 328 330 335 334 327 323 322 322 322 321 321 322 322 325 331 341 345 342 340 342 344 342 340 342 339
347 345 346 345 341 342 341 342 342 344 342 338 336 333 331 332 331 328 329 332 336 334 326 323 322 323 323 322 322 321 321 324 325 326 332 333 329 326 336 338 337 337 336
346 346 345 344 341 341 342 342 342 342 339 337 337 336 333 332 331 328 329 332 334 330 323 322 322 323 324 323 322 320 321 324 324 323 322 324 321 319 318 320 333 332 333
345 343 343 342 341 342 341 342 340 338 335 333 331 337 335 331 331 329 327 327 332 330 322 321 322 323 324 323 322 321 321 323 324 323 322 321 320 318 313 315 327 325 324
345 341 339 341 342 341 341 340 338 335 332 329 328 329 329 329 330 329 328 327 326 323 322 321 322 323 324 324 323 321 322 322 324 324 323 321 317 316 315 313 325 328 328
345 344 344 339 339 339 338 338 336 332 329 327 325 325 326 326 326 326 326 326 324 323 322 322 322 323 325 325 323 323 323 323 323 324 320 318 318 318 314 313 328 329 330
339 343 343 343 342 340 339 338 334 331 328 325 323 322 322 321 321 323 322 323 322 322 322 322 324 325 325 327 326 324 324 323 322 322 321 319 318 318 315 313 326 327 328
337 337 339 340 340 340 338 335 331 326 325 328 327 324 328 330 330 325 322 325 325 325 325 323 324 325 328 326 325 324 324 323 322 322 321 319 318 318 313 321 326 328 329
335 336 337 336 336 338 338 337 332 333 332 332 331 331 329 331 334 331 330 330 331 332 332 328 327 327 325 325 324 324 323 323 322 322 321 319 319 318 316 320 325 327 326
333 333 334 334 334 334 334 332 330 328 329 331 331 330 330 330 331 333 330 330 331 332 331 330 327 325 325 323 322 323 323 323 322 321 320 320 319 318 321 323 326 324 324
333 333 333 332 333 333 333 331 330 330 330 330 329 329 330 328 328 329 330 330 329 329 329 329 325 324 323 321 322 322 322 322 322 321 320 320 320 319 320 324 323 323 323
328 327 326 328 330 331 330 330 330 330 329 330 329 327 327 325 325 326 327 327 329 327 326 326 325 324 324 324 325 322 322 322 321 321 320 320 320 319 320 323 322 323 322
326 328 325 325 322 323 324 325 326 323 328 327 326 323 321 320 321 322 322 323 324 324 324 324 323 323 323 324 323 322 321 320 318 319 319 319 319 320 319 323 323 322 321
322 322 322 321 322 320 320 325 324 322 322 321 320 319 319 318 316 316 315 315 316 319 322 323 322 321 321 321 321 321 321 320 319 317 319 318 318 321 319 322 321 318 319
322 322 320 320 318 317 316 317 320 319 322 323 322 321 319 316 316 316 317 315 317 317 317 317 319 319 320 320 320 320 319 318 317 316 318 318 318 320 323 320 317 318 318
322 322 321 319 317 316 316 316 315 315 315 320 323 322 318 316 315 315 316 316 315 319 319 320 320 319 319 319 319 318 314 314 315 316 318 317 316 317 319 321 318 317 317
322 322 320 320 318 316 315 316 315 314 315 320 319 316 316 316 315 313 312 312 313 314 317 319 320 320 319 319 318 316 315 314 317 319 318 317 315 316 317 315 315 316 316
322 322 320 318 318 316 315 316 316 314 315 314 314 313 312 311 311 312 312 312 312 314 314 315 317 318 319 319 319 317 317 317 318 318 316 316 314 314 314 314 313 317 316
323 320 319 318 318 317 314 314 314 312 312 313 312 313 313 312 313 311 311 312 313 314 313 315 315 316 317 318 319 317 313 316 318 317 317 315 314 313 313 313 313 315 316
320 318 320 317 315 314 313 314 313 313 313 313 313 313 313 313 312 311 313 311 313 314 314 315 314 315 316 317 318 317 313 313 314 315 314 315 314 314 314 315 315 316 315
318 317 314 313 313 312 312 313 313 313 312 312 313 312 312 311 312 312 312 313 313 314 313 314 314 315 315 316 316 317 317 316 312 312 314 315 314 313 313 312 315 317 315
319 316 314 313 313 312 313 312 311 312 312 311 311 311 310 310 311 311 311 312 312 312 313 313 314 315 315 316 316 316 313 315 316 313 312 313 313 313 312 313 316 314 314
314 314 313 311 311 311 311 311 310 310 310 310 310 309 308 310 311 309 310 311 312 313 313 313 314 315 315 315 315 316 315 314 314 313 310 312 312 313 314 314 314 313 311
Wind_Speed
17 19 22 20 19 16 16 18 18 18 15 13 12 13 16 17 18 18 19 21 21 21 21 23 23 23 23 22 19 18 18 16 15 12 12 13 13 12 17 17 13 13 13
16 19 20 19 18 17 17 17 17 15 13 12 9 13 15 17 17 18 18 19 21 21 21 21 22 22 21 20 18 16 15 17 20 11 14 13 11 11 11 11 11 12 11
21 19 20 18 17 16 16 15 14 12 11 10 10 13 14 16 17 17 18 19 20 20 20 20 21 21 21 20 18 14 14 18 21 17 15 13 14 13 13 13 12 10 9
21 19 19 16 16 15 15 14 12 11 10 9 11 13 14 15 15 16 17 18 18 17 18 18 19 20 20 20 20 16 12 19 22 17 16 12 13 13 13 12 11 10 11
22 19 17 15 15 15 14 13 12 10 10 11 13 14 15 15 14 15 16 16 15 15 15 16 17 18 19 20 20 18 14 17 20 14 14 12 11 11 9 8 7 7 8
21 19 16 15 15 15 15 13 11 10 10 11 12 13 15 15 14 14 14 13 13 12 13 14 15 17 18 20 21 18 16 16 14 8 7 8 9 10 9 6 3 3 1
22 19 17 15 14 13 13 13 9 9 10 11 12 12 12 13 12 11 10 10 10 9 9 10 12 14 15 18 21 16 16 16 18 5 6 6 9 10 12 6 3 2 1
21 21 18 15 13 11 11 10 9 10 11 11 11 11 11 11 9 8 6 6 6 5 5 6 8 11 11 14 19 15 15 15 17 4 8 7 8 12 14 7 2 2 1
20 18 17 15 11 10 10 9 9 9 10 9 10 10 10 9 8 6 5 4 4 3 1 2 6 8 7 9 15 15 16 16 15 8 6 8 10 14 15 8 3 3 3
27 23 15 13 11 11 10 10 8 7 7 7 7 8 7 6 6 7 5 7 7 6 4 2 5 6 7 10 8 14 14 15 17 3 6 9 12 17 16 7 4 5 6
31 30 24 15 11 8 10 10 8 7 7 5 3 3 3 3 5 6 7 12 11 7 5 4 7 6 10 11 9 12 14 13 14 8 7 10 13 17 15 6 4 5 8
29 30 28 23 19 13 10 11 9 7 5 3 3 4 5 3 0 10 14 11 12 6 4 5 5 5 4 4 5 6 10 9 13 9 9 10 12 15 14 5 3 4 8
26 29 26 25 23 21 16 12 8 8 6 7 7 3 2 4 5 5 8 8 11 11 6 4 5 5 2 5 6 4 7 9 7 13 11 8 9 12 11 4 4 4 6
26 23 21 21 21 20 18 14 13 11 9 12 12 9 5 7 10 7 8 9 9 8 4 7 7 4 2 4 4 3 3 7 8 8 8 8 7 8 7 6 6 4 4
26 23 23 20 18 16 17 14 13 14 12 9 9 9 9 9 8 5 7 5 3 2 5 7 8 9 9 11 13 10 10 5 6 6 10 8 9 6 3 5 6 4 3
21 17 21 22 21 18 17 14 12 14 8 9 13 13 13 12 12 12 10 6 6 8 11 12 13 14 15 18 19 12 13 10 8 4 8 7 9 6 2 5 4 3 2
21 21 20 18 17 17 15 11 13 12 11 9 9 11 11 15 15 14 13 11 10 9 10 10 9 10 12 12 11 12 13 13 9 11 7 8 4 6 5 6 3 1 1
15 17 17 14 16 18 16 13 12 13 14 9 6 6 9 12 12 13 14 17 19 16 14 14 14 15 14 12 13 12 13 12 13 11 8 3 2 5 9 3 3 2 1
12 12 12 13 13 14 15 17 16 15 20 10 6 2 6 9 11 13 13 14 18 17 15 15 13 14 15 13 14 15 11 11 17 11 2 3 1 2 5 5 3 3 2
9 9 10 10 11 14 12 17 16 20 24 6 4 4 3 1 8 12 14 17 14 14 15 14 16 13 12 15 15 16 16 15 13 8 9 7 5 8 9 4 3 3 3
6 10 8 8 9 12 14 15 12 16 16 13 10 6 8 12 10 15 16 18 16 14 15 15 13 12 14 15 12 10 11 13 14 11 6 6 5 5 2 2 3 3 3
11 8 6 9 10 11 15 14 13 16 17 10 14 12 14 14 10 16 15 18 18 17 15 14 13 13 13 13 7 4 3 4 5 6 3 8 5 4 3 5 3 4 3
10 6 8 13 14 15 15 13 15 16 16 17 20 18 18 15 15 17 14 16 14 16 14 11 12 10 11 11 9 7 2 1 3 4 6 7 6 2 2 7 5 7 3
4 13 13 12 13 17 16 15 16 16 16 17 16 15 13 11 13 12 14 14 13 13 12 10 8 8 6 4 3 3 3 2 2 2 1 3 4 3 3 5 5 10 4
4 8 12 15 17 16 12 16 17 16 16 16 16 15 15 13 15 13 14 13 11 11 9 8 8 7 3 1 1 4 5 10 5 2 2 3 6 4 3 5 9 6 4
18 15 17 20 18 18 17 17 18 17 17 17 17 16 17 16 14 14 14 12 10 8 8 8 7 8 7 3 2 4 4 2 2 3 2 1 3 4 3 8 10 8 4
Wind_Direction
100 108 106 104 104 102 101 106 107 101 99 93 84 83 89 88 88 88 90 92 90 86 83 81 78 72 68 65 66 67 68 56 40 51 75 83 82 87 88 99 82 77 68
129 111 104 101 102 101 107 112 113 110 107 97 85 97 99 100 100 99 95 91 88 85 81 78 74 68 63 60 59 63 62 52 40 87 88 83 77 76 87 86 76 84 86
114 109 103 101 100 102 105 111 113 112 111 105 103 107 109 110 109 106 102 99 95 87 83 77 72 65 59 54 51 55 54 51 56 99 100 84 76 69 72 75 75 76 80
113 105 103 105 106 106 111 115 116 117 113 112 111 113 114 116 115 108 107 102 95 90 86 80 72 63 54 48 45 45 46 46 76 98 108 90 77 72 71 70 67 83 66
114 109 106 104 107 111 112 112 114 110 106 113 117 121 122 122 119 113 112 107 99 94 89 79 67 56 46 40 38 36 49 65 69 83 96 89 72 63 64 76 63 79 77
109 105 103 101 103 109 110 109 112 106 111 116 119 125 131 131 129 124 123 118 107 104 92 79 67 52 45 42 39 42 51 58 58 77 62 74 56 43 33 31 70 89 242
106 103 101 100 102 106 113 116 113 116 119 120 123 126 131 137 135 132 130 121 115 110 94 76 63 50 45 45 39 50 44 53 49 86 76 75 56 31 13 4 15 15 33
97 97 96 99 104 106 111 110 109 120 124 127 131 136 141 144 144 142 140 134 135 128 105 78 58 44 43 48 43 49 41 39 28 87 97 74 42 15 3 359 16 17 1
95 91 86 89 96 102 105 106 110 121 126 130 134 140 148 151 162 171 177 190 195 192 170 57 40 31 44 43 47 39 26 26 19 144 84 50 24 5 358 355 21 15 314
72 80 86 80 77 87 107 105 102 104 115 129 138 141 153 165 186 200 211 228 240 244 258 319 17 32 31 13 27 22 24 25 15 91 49 31 16 6 355 355 24 10 346
60 59 68 78 82 85 89 83 88 96 96 95 128 125 160 199 252 239 244 257 240 251 284 324 345 7 9 33 37 23 20 20 12 2 29 17 15 11 1 11 61 42 18
56 58 61 61 66 86 87 88 96 98 94 70 99 201 213 206 155 227 237 249 273 274 278 274 312 349 61 63 38 20 29 4 15 8 0 6 10 13 7 20 67 48 46
63 60 60 58 64 68 73 68 87 71 68 53 55 94 69 18 359 286 276 307 229 240 275 213 133 165 142 27 23 353 5 357 329 1 348 357 7 11 20 43 92 76 61
64 62 60 64 69 71 65 57 53 45 33 33 41 50 36 17 31 45 62 128 139 129 162 206 202 186 151 60 26 314 342 358 313 336 348 341 354 4 32 98 112 102 64
65 61 55 54 57 61 60 68 58 51 43 21 358 7 6 0 22 54 60 84 194 205 212 211 259 274 285 290 304 293 267 255 293 290 318 328 337 340 65 123 125 126 82
71 65 56 53 48 48 45 39 26 15 4 344 334 347 358 360 349 352 353 345 308 286 284 282 276 279 284 285 285 269 266 296 313 318 302 295 319 299 162 142 137 127 39
63 63 59 51 42 36 34 14 3 2 354 345 353 355 17 9 2 0 355 347 330 322 313 305 294 308 313 298 290 285 271 260 275 277 301 279 320 242 197 175 176 130 70
76 65 56 53 42 33 15 15 20 357 324 297 292 335 351 7 4 356 351 348 338 328 320 310 307 305 300 302 295 286 272 264 271 274 304 211 305 200 185 199 93 3 33
87 80 70 54 45 29 19 22 12 357 4 322 244 333 16 5 5 350 333 344 347 319 319 318 324 326 310 298 281 287 282 268 280 287 243 178 45 83 149 153 199 235 258
99 92 80 72 58 33 26 22 1 350 4 16 52 9 17 351 326 324 318 314 318 332 333 320 309 304 296 288 290 286 285 282 275 302 172 131 117 115 144 163 169 245 270
96 97 81 65 51 38 39 22 19 1 21 24 37 13 1 353 341 315 320 319 326 332 333 336 335 307 284 278 281 296 309 312 279 196 168 181 139 111 126 140 324 220 242
101 83 56 49 40 42 19 14 1 352 342 343 347 344 346 350 327 321 327 331 333 321 322 337 343 329 309 280 239 280 318 18 118 152 161 174 183 211 261 294 289 230 197
87 36 52 58 46 28 11 4 355 354 347 348 347 348 338 340 333 329 323 324 327 328 329 327 320 319 316 308 233 230 23 280 347 67 89 142 165 185 271 227 237 238 205
64 74 69 47 30 23 13 14 6 356 356 350 355 348 352 2 357 349 339 333 329 328 332 333 321 305 296 301 258 135 111 296 146 349 60 125 184 188 289 275 288 179 187
47 76 68 44 35 21 24 10 18 15 7 2 360 358 357 356 347 350 352 337 338 337 338 349 349 341 339 264 314 84 89 270 226 133 251 295 280 283 324 46 147 148 145
58 59 40 30 33 25 24 15 15 10 7 6 3 354 345 346 343 346 351 352 349 1 16 14 17 22 23 57 183 128 142 155 83 104 98 271 257 316 74 116 135 131 136